Weather History for KAMA - December, 2012

Change the Weather History Date:

Monday, December 10, 2012

  Actual Average Record
Temperature  
Mean Temperature 25 °F 37 °F  
Max Temperature 40 °F 50 °F 80 °F (1933)
Min Temperature 9 °F 24 °F -1 °F (1898)
Degree Days  
Heating Degree Days 40 28  
Month to date heating degree days 170 267  
Since 1 July heating degree days 809 1111  
Cooling Degree Days 0 0  
Month to date cooling degree days 0 0  
Year to date cooling degree days 2011 1399  
Moisture  
Dew Point 8 °F    
Average Humidity 50    
Maximum Humidity 73    
Minimum Humidity 27    
Precipitation  
Precipitation 0.00 in 0.02 in 0.55 in (1923)
Month to date precipitation T 0.21  
Year to date precipitation 11.79 19.86  
Snow  
Snow 0.00 in 0.10 in 5.50 in (1923)
Month to date snowfall 0.1 1.2  
Since 1 July snowfall 0.1 3.9  
Snow Depth 0.00 in    
Sea Level Pressure  
Sea Level Pressure 30.11 in    
Wind  
Wind Speed 9 mph (WSW)    
Max Wind Speed 20 mph    
Max Gust Speed 24 mph    
Visibility 10 miles    
Events      
T = Trace of Precipitation, MM = Missing Value Source: NWS Daily Summary

Daily Weather History Graph

Daily Weather History Graph

Search for Another Location

Airport or City:

Trip Planner

Search our weather history database for the weather conditions in past years. The results will help you decide how hot, cold, wet, or windy it might be!

Date:

Astronomy

Dec. 10, 2012 Rise Set
Actual Time 7:44 AM CST 5:34 PM CST
Civil Twilight 7:16 AM CST 6:03 PM CST
Nautical Twilight 6:45 AM CST 6:34 PM CST
Astronomical Twilight 6:14 AM CST 7:05 PM CST
Moon 4:34 AM CST (12/10) 3:22 PM CST (12/10)
Length of Visible Light 10h 46m
Length of Day
9h 50m
Waning Crescent, 10% of the Moon is Illuminated
Dec 10
Waning Crescent
Dec 13
New
Dec 19
First Quarter
Dec 28
Full
Jan 4
Last Quarter

Hourly Weather History & Observations

Time (CST) Temp. Windchill Dew Point Humidity Pressure Visibility Wind Dir Wind Speed Gust Speed Precip Events Conditions
12:53 AM 19.9 °F 5.7 °F 6.1 °F 55% 30.25 in 10.0 mi North 16.1 mph - N/A   Mostly Cloudy
1:53 AM 19.0 °F 4.5 °F 3.9 °F 52% 30.23 in 10.0 mi NNW 16.1 mph 21.9 mph N/A   Clear
2:53 AM 16.0 °F 4.4 °F 3.9 °F 59% 30.23 in 10.0 mi NW 9.2 mph - N/A   Clear
3:53 AM 15.1 °F 4.2 °F 3.0 °F 59% 30.22 in 10.0 mi NW 8.1 mph - N/A   Clear
4:53 AM 12.9 °F 2.6 °F 3.0 °F 65% 30.22 in 10.0 mi NW 6.9 mph - N/A   Clear
5:53 AM 10.9 °F 0.2 °F 1.9 °F 67% 30.22 in 10.0 mi WNW 6.9 mph - N/A   Clear
6:53 AM 12.0 °F 0.5 °F 3.9 °F 70% 30.22 in 10.0 mi WNW 8.1 mph - N/A   Clear
7:53 AM 12.0 °F -0.4 °F 3.9 °F 70% 30.23 in 10.0 mi West 9.2 mph - N/A   Clear
8:53 AM 19.0 °F 9.0 °F 10.0 °F 68% 30.21 in 10.0 mi West 8.1 mph - N/A   Clear
9:53 AM 24.8 °F 14.6 °F 8.6 °F 50% 30.12 in 10.0 mi WNW 10.4 mph - N/A   Clear
10:53 AM 28.9 °F 18.2 °F 8.1 °F 41% 30.17 in 10.0 mi West 13.8 mph - N/A   Clear
11:53 AM 33.1 °F 27.7 °F 8.1 °F 35% 30.13 in 10.0 mi West 5.8 mph - N/A   Clear
12:53 PM 35.1 °F 27.4 °F 10.0 °F 35% 30.08 in 10.0 mi WSW 10.4 mph 17.3 mph N/A   Clear
1:53 PM 37.0 °F 29.8 °F 10.9 °F 34% 30.04 in 10.0 mi WSW 10.4 mph - N/A   Clear
2:53 PM 39.0 °F 31.0 °F 10.0 °F 30% 30.01 in 10.0 mi WSW 13.8 mph 18.4 mph N/A   Clear
3:53 PM 39.9 °F 35.1 °F 9.0 °F 28% 30.00 in 10.0 mi SW 6.9 mph - N/A   Clear
4:53 PM 37.9 °F 32.1 °F 8.1 °F 29% 30.00 in 10.0 mi SSW 8.1 mph - N/A   Clear
5:53 PM 33.1 °F 27.7 °F 8.1 °F 35% 30.02 in 10.0 mi South 5.8 mph - N/A   Clear
6:53 PM 30.0 °F 23.2 °F 9.0 °F 41% 30.02 in 10.0 mi South 6.9 mph - N/A   Clear
7:53 PM 28.0 °F 18.6 °F 10.9 °F 49% 30.05 in 10.0 mi South 10.4 mph - N/A   Clear
8:53 PM 25.0 °F 17.1 °F 12.9 °F 60% 30.03 in 10.0 mi South 6.9 mph - N/A   Clear
9:53 PM 19.0 °F 8.2 °F 10.9 °F 71% 30.04 in 10.0 mi SSW 9.2 mph - N/A   Clear
10:53 PM 19.9 °F 10.1 °F 12.0 °F 71% 30.04 in 10.0 mi SW 8.1 mph - N/A   Clear
11:53 PM 21.9 °F 13.4 °F 12.9 °F 68% 30.03 in 10.0 mi SSW 6.9 mph - N/A   Clear